Regional Weather Roundup
Issued by NWS

Home | Current Version | Previous Version | Text Only | Print | Product List | Glossary Off
Versions: 1 2 3 4 5 6 7 8 9 10 11 12 13 14 15 16 17 18 19 20 21 22 23 24 25 26 27 28 29 30 31 32 33 34 35 36 37 38 39 40 41 42 43 44 45 46 47 48 49 50

000
ASUS43 KMPX 290601
RWRMN
WEATHER ROUNDUP FOR MINNESOTA
NATIONAL WEATHER SERVICE TWIN CITIES/CHANHASSEN MN
100 AM CDT MON AUG 29 2016


NOTE: "FAIR" INDICATES FEW OR NO CLOUDS BELOW 12,000 FEET WITH NO
SIGNIFICANT WEATHER AND/OR OBSTRUCTIONS TO VISIBILITY. N/A MEANS
CURRENT SKY AND/OR WEATHER CONDITIONS ARE NOT AVAILABLE.

MNZ060>063-068>070-290700-
   Twin Cities Metro

CITY           SKY/WX    TMP DP  RH WIND       PRES   REMARKS
TWIN CITIES    FAIR      73  68  84 S9        30.12F
6HR MIN TEMP:  72; 6HR MAX TEMP:  82;

ST PAUL        FAIR      71  69  93 SE10      30.13S
CRYSTAL        FAIR      73  67  81 S9        30.10F
BLAINE         FAIR      73  72  94 S8        30.12F
LAKEVILLE      FAIR      68  68 100 S3        30.14S
EDEN PRAIRIE   FAIR      73  69  87 SE6       30.11F
6HR MIN TEMP:  73; 6HR MAX TEMP:  82;

LAKEVILLE      FAIR      68  68 100 S3        30.14S
SOUTH ST PAUL  FAIR      72  70  93 S6        30.13F
LAKE ELMO      FAIR      70  68  94 SE5       30.15F
$$
MNZ001>005-007-008-013>017-022>024-027-028-290700-
   Northwest Minnesota

CITY           SKY/WX    TMP DP  RH WIND       PRES   REMARKS
BEMIDJI        TSTM      70  69  97 N9        30.06R
HALLOCK        FAIR      70  66  88 CALM      29.98S THUNDER
ROSEAU         FAIR      66  61  82 CALM      30.00S
WARROAD        FAIR      64  61  88 E3        30.02R
THIEF RVR FALL FAIR      68  63  84 NE6       30.01R
CROOKSTON      FAIR      70  63  78 SE6       30.00R
FOSSTON        FAIR      64  61  88 S13       30.03R
DETROIT LAKES    N/A     64  61  88 MISG        N/A
MOORHEAD       FAIR      73  66  78 E8        30.02S
PARK RAPIDS    MOCLDY    74  68  81 NW24G32   30.10R
MAHNOMEN       TSTM      64  61  92 W7        30.04S
$$
MNZ006-009>011-018-025>026-290700-
   North Central Minnesota

CITY           SKY/WX    TMP DP  RH WIND       PRES   REMARKS
BAUDETTE       CLOUDY    64  61  90 SE8       30.03F
FLAG ISLAND    CLOUDY    66  63  88 CALM      30.02S
INTL FALLS     TSTM      63  60  90 VRB7G16   30.08R
6HR MIN TEMP:  62; 6HR MAX TEMP:  70; 6HR PCP:  0.42;

WASKISH        TSTM      63  61  94 SE7       30.06F
BIG FORK       TSTM      64  63  94 E8        30.16R
LONGVILLE      CLOUDY    72  68  88 E5        30.07R
GRAND RAPIDS   CLOUDY    68  65  90 SE9       30.13R
CRANE LAKE     CLOUDY    61  61 100 S5        30.15F
ORR            TSTM      63  61  94 CALM      30.12F
COOK           CLOUDY    64  63  94 CALM      30.13R THUNDER
WALKER         MOCLDY    72  68  88 E3        30.02S THUNDER
$$
MNZ012-019>021-037-290700-
   Northeast Minnesota

CITY           SKY/WX    TMP DP  RH WIND       PRES   REMARKS
DULUTH         CLOUDY    64  63  96 SE8       30.16R FOG
6HR MIN TEMP:  63; 6HR MAX TEMP:  68;

ELY            FAIR      63  61  94 SE7       30.13R
HIBBING        CLOUDY    64  62  93 VRB3      30.13R
EVELETH        FAIR      64  62  93 SE5       30.14S
DULUTH HARBOR  CLOUDY    66  64  94 NE14      30.15R
TWO HARBORS    MOCLDY    64  61  88 NE3       30.14S
SILVER BAY     CLOUDY    63  63 100 NE5       30.14F
G MARAIS ARPRT FAIR      59  55  88 E3        30.19F
$$
MNZ029>031-032-039>041-046>048-054>057-064-290700-
   West Central Minnesota

CITY           SKY/WX    TMP DP  RH WIND       PRES   REMARKS
FERGUS FALLS   FAIR      75  72  88 S14G21    30.03R
WHEATON        FAIR      75  73  94 S12       30.02S
MORRIS         FAIR      73  72  94 S9        30.04S
ALEXANDRIA     FAIR      75  69  81 S14       30.07F
ELBOW LAKE     FAIR      73  72  94 S14       30.04R THUNDER
WADENA         FAIR      73  68  83 S13G18    30.03S
GLENWOOD       FAIR      73  70  88 S14       30.08S
APPLETON       FAIR      75  70  83 S7        30.04S
BENSON         FAIR      73  68  83 S10       30.06S
ORTONVILLE     FAIR      72  70  94 CALM      30.04S
MADISON        FAIR      72  72 100 S6        30.05S
WILLMAR        FAIR      73  70  88 S6        30.10S
$$
MNZ033>034-036-042>043-049>051-058-059-290700-
   Central Minnesota

CITY           SKY/WX    TMP DP  RH WIND       PRES   REMARKS
ST CLOUD       FAIR      69  69 100 S8        30.09F
6HR MIN TEMP:  69; 6HR MAX TEMP:  80;

SAUK CENTRE    FAIR      70  68  94 S8        30.09R
PAYNESVILLE    FAIR      72  73 100 S8        30.10S
AITKIN         FAIR      73  64  73 SE9G16    30.08R
PINE RIVER     FAIR      72  68  88 SE9       30.08F
BRAINERD       FAIR      72  68  87 S9        30.07F
STAPLES        FAIR      72  66  83 S10       30.04F
LONG PRAIRIE   FAIR      70  68  94 SE10      30.07F
LITTLE FALLS   FAIR      70  64  83 SE7       30.08F
LITCHFIELD     FAIR      73  72  94 SE7       30.11S
BUFFALO        FAIR      72  68  86 SE6       30.11F
MAPLE LAKE     FAIR      71  69  95 CALM      30.11F
HUTCHINSON     FAIR      72  71  97 S3        30.12S
$$
MNZ037-044-045-052-053-290700-
   East Central Minnesota

CITY           SKY/WX    TMP DP  RH WIND       PRES   REMARKS
PRINCETON      FAIR      72  68  88 SE7       30.10F
MORA           FAIR      68  64  88 SE6       30.12F
CAMBRIDGE      FAIR      73  64  73 SE9       30.09F
RUSH CITY      FAIR      68  66  94 SE6       30.11F
MOOSE LAKE     MOCLDY    68  64  88 CALM      30.12R
HINCKLEY       FAIR      68  66  94 CALM      30.12S
CLOQUET        MOCLDY    63  61  94 SE3       30.15R FOG
MCGREGOR       FAIR      68  64  88 SE5       30.12R
$$
MNZ071>073-080-081-089-090-097-098-290700-
   Southwest Minnesota

CITY           SKY/WX    TMP DP  RH WIND       PRES   REMARKS
MONTEVIDEO     FAIR      73  72  94 S9        30.08S
GRANITE FALLS  FAIR      73  71  91 SE8       30.08F
CANBY          FAIR      76  70  83 S7        30.07S
MARSHALL       FAIR      73  68  84 S9        30.08S
REDWOOD FALLS  FAIR      71  67  87 S8        30.09S
OLIVIA         FAIR      70  66  88 SE6       30.09S
PIPESTONE      FAIR      70  64  83 S9        30.12R
WINDOM         FAIR      70  64  83 S6        30.13R
WORTHINGTON    FAIR      68  64  87 S9        30.14R
JACKSON          N/A     68  63  83 S8        30.15R
TRACY          FAIR      73  67  82 SW10      30.10S
SLAYTON        FAIR      68  64  88 S8        30.13R
$$
MNZ065>067-074>077-082>085-091>093-290700-
   South Central Minnesota

CITY           SKY/WX    TMP DP  RH WIND       PRES   REMARKS
MANKATO        FAIR      72  68  88 S7        30.14S
NEW ULM          N/A     70  70 100 S7        30.12R
ST JAMES       FAIR      64  63  94 SE6       30.14R
FAIRMONT       FAIR      68  66  93 S8        30.15R
GLENCOE        FAIR      73  72  96 SE6       30.11S
FARIBAULT      FAIR      72  70  94 SE6       30.15S
OWATONNA       FAIR      73  70  88 S8        30.16S
WASECA         FAIR      72  70  94 SE5       30.16S
ALBERT LEA     FAIR      73  72  94 S8        30.16S
$$
MNZ078>079-086>088-094>096-290700-
   Southeast Minnesota

CITY           SKY/WX    TMP DP  RH WIND       PRES   REMARKS
ROCHESTER      FAIR      68  67  96 SE7       30.19R
6HR MIN TEMP:  68; 6HR MAX TEMP:  79;

RED WING       FAIR      72  70  94 SE5       30.14F
DODGE CENTER   FAIR      66  66 100 SE6       30.18S
WINONA         FAIR      70  68  94 CALM      30.17F
AUSTIN         FAIR      72  70  94 S5        30.17S
PRESTON        FAIR      69  66  90 S3        30.19S
$$
ABBREVIATIONS USED IN REMARKS
   TC - TEMPERATURES IN CELSIUS
  WCI - WIND CHILL INDEX
   HX - HEAT INDEX
  VSB - VISIBILITY
$$




USA.gov is the U.S. government's official web portal to all federal, state and local government web resources and services.